| time (UTC) | temp F | wind direction | speed MPH | gust MPH | rain 1hr in | rain 24hr in | rain mn in | humidity % | barometer mb |
| 20260904123045 | 82 | 123 | 5.0 | 12.0 | 0.00 | 0.00 | 0.00 | 84 | 1011.3 |
| 20260904121549 | 82 | 132 | 7.0 | 13.0 | 0.00 | 0.00 | 0.00 | 84 | 1011.1 |
| 20260904120053 | 82 | 128 | 8.0 | 14.0 | 0.00 | 0.00 | 0.00 | 84 | 1010.8 |
| 20260904114545 | 82 | 152 | 6.0 | 11.0 | 0.00 | 0.00 | 0.00 | 83 | 1010.8 |
| 20260904113043 | 82 | 133 | 7.0 | 11.0 | 0.00 | 0.00 | 0.00 | 83 | 1010.8 |
| 20260904111544 | 83 | 129 | 5.0 | 11.0 | 0.00 | 0.00 | 0.00 | 82 | 1010.8 |
| 20260904110053 | 83 | 132 | 7.0 | 15.0 | 0.00 | 0.00 | 0.00 | 82 | 1010.8 |
| 20260904104547 | 83 | 146 | 7.0 | 14.0 | 0.00 | 0.00 | 0.00 | 81 | 1010.8 |
| 20260904103104 | 83 | 136 | 8.0 | 14.0 | 0.00 | 0.00 | 0.00 | 81 | 1010.6 |
| 20260904101551 | 83 | 152 | 6.0 | 15.0 | 0.00 | 0.00 | 0.00 | 81 | 1010.7 |
| 20260904100049 | 83 | 141 | 8.0 | 15.0 | 0.00 | 0.00 | 0.00 | 80 | 1010.8 |
| 20260904094546 | 83 | 147 | 9.0 | 14.0 | 0.00 | 0.00 | 0.00 | 80 | 1010.8 |
| 20260904093052 | 84 | 139 | 9.0 | 12.0 | 0.00 | 0.00 | 0.00 | 80 | 1010.8 |
| 20260904091602 | 84 | 144 | 6.0 | 11.0 | 0.00 | 0.00 | 0.00 | 80 | 1010.9 |
| 20260904090042 | 84 | 148 | 5.0 | 12.0 | 0.00 | 0.00 | 0.00 | 80 | 1010.9 |
| 20260904084552 | 84 | 142 | 7.0 | 15.0 | 0.00 | 0.00 | 0.00 | 80 | 1011.1 |
| 20260904083105 | 84 | 154 | 9.0 | 15.0 | 0.00 | 0.00 | 0.00 | 79 | 1011.3 |
| 20260904081544 | 84 | 151 | 9.0 | 16.0 | 0.00 | 0.00 | 0.00 | 79 | 1011.3 |
| 20260904080053 | 84 | 140 | 8.0 | 15.0 | 0.00 | 0.00 | 0.00 | 79 | 1011.3 |
| 20260904074604 | 84 | 140 | 7.0 | 18.0 | 0.00 | 0.00 | 0.00 | 79 | 1011.4 |
| 20260904073050 | 84 | 150 | 10.0 | 17.0 | 0.00 | 0.00 | 0.00 | 80 | 1011.5 |
| 20260904071546 | 85 | 137 | 7.0 | 16.0 | 0.00 | 0.00 | 0.00 | 80 | 1011.7 |
| 20260904070043 | 85 | 155 | 10.0 | 17.0 | 0.00 | 0.00 | 0.00 | 79 | 1011.8 |
| 20260904064543 | 85 | 168 | 9.0 | 20.0 | 0.00 | 0.00 | 0.00 | 79 | 1011.9 |
| 20260904063053 | 85 | 148 | 8.0 | 19.0 | 0.00 | 0.00 | 0.00 | 80 | 1011.8 |
| 20260904061542 | 85 | 152 | 7.0 | 17.0 | 0.00 | 0.00 | 0.00 | 81 | 1011.7 |
| 20260904060054 | 85 | 131 | 9.0 | 15.0 | 0.00 | 0.00 | 0.00 | 80 | 1011.5 |
| 20260904054542 | 85 | 113 | 7.0 | 21.0 | 0.00 | 0.00 | 0.00 | 80 | 1011.8 |
| 20260904053049 | 85 | 119 | 9.0 | 17.0 | 0.00 | 0.00 | 0.00 | 79 | 1011.8 |
| 20260904051543 | 85 | 125 | 11.0 | 18.0 | 0.00 | 0.00 | 0.00 | 79 | 1011.9 |
| 20260904050044 | 85 | 136 | 8.0 | 16.0 | 0.00 | 0.00 | 0.00 | 78 | 1012.0 |
| 20260904044542 | 85 | 123 | 9.0 | 23.0 | 0.00 | 0.00 | 0.00 | 77 | 1012.0 |
| 20260904043055 | 85 | 148 | 10.0 | 16.0 | 0.00 | 0.00 | 0.00 | 77 | 1012.0 |
| 20260904041555 | 86 | 129 | 12.0 | 19.0 | 0.00 | 0.00 | 0.00 | 77 | 1011.8 |
| 20260904040108 | 86 | 136 | 12.0 | 21.0 | 0.00 | 0.00 | 0.00 | 76 | 1011.6 |
| 20260904034554 | 86 | 134 | 10.0 | 18.0 | 0.00 | 0.00 | 0.00 | 76 | 1011.6 |
| 20260904033048 | 86 | 134 | 12.0 | 20.0 | 0.00 | 0.00 | 0.00 | 76 | 1011.5 |
| 20260904031559 | 86 | 135 | 13.0 | 21.0 | 0.00 | 0.00 | 0.00 | 75 | 1011.3 |
| 20260904030044 | 86 | 134 | 13.0 | 21.0 | 0.00 | 0.00 | 0.00 | 75 | 1011.1 |
| 20260904024544 | 87 | 108 | 11.0 | 25.0 | 0.00 | 0.00 | 0.00 | 74 | 1010.9 |
| 20260904023054 | 87 | 99 | 13.0 | 21.0 | 0.00 | 0.00 | 0.00 | 73 | 1010.8 |
| 20260904021548 | 87 | 143 | 13.0 | 26.0 | 0.00 | 0.00 | 0.00 | 72 | 1010.6 |
| 20260904020045 | 88 | 154 | 12.0 | 23.0 | 0.00 | 0.00 | 0.00 | 70 | 1010.1 |
| 20260904014609 | 88 | 136 | 13.0 | 24.0 | 0.00 | 0.00 | 0.00 | 70 | 1010.3 |
| 20260904013043 | 89 | 138 | 13.0 | 22.0 | 0.00 | 0.00 | 0.00 | 68 | 1009.8 |
| 20260904011544 | 90 | 126 | 13.0 | 29.0 | 0.00 | 0.00 | 0.00 | 66 | 1009.6 |
| 20260904010058 | 91 | 140 | 10.0 | 24.0 | 0.00 | 0.00 | 0.00 | 63 | 1009.4 |
| 20260904004544 | 92 | 112 | 11.0 | 23.0 | 0.00 | 0.00 | 0.00 | 61 | 1009.2 |
| 20260904003050 | 93 | 126 | 12.0 | 26.0 | 0.00 | 0.00 | 0.00 | 57 | 1009.3 |
| 20260904001550 | 94 | 120 | 17.0 | 26.0 | 0.00 | 0.00 | 0.00 | 55 | 1009.1 |
| 20260904000047 | 95 | 98 | 14.0 | 24.0 | 0.00 | 0.00 | 0.00 | 52 | 1009.0 |
| 20260903234544 | 96 | 106 | 10.0 | 24.0 | 0.00 | 0.00 | 0.00 | 52 | 1009.0 |
| 20260903233109 | 97 | 77 | 9.0 | 24.0 | 0.00 | 0.00 | 0.00 | 51 | 1008.8 |
| 20260903231543 | 99 | 108 | 11.0 | 19.0 | 0.00 | 0.00 | 0.00 | 50 | 1008.5 |
| 20260903230055 | 99 | 105 | 8.0 | 17.0 | 0.00 | 0.00 | 0.00 | 47 | 1008.2 |
| 20260903224549 | 99 | 90 | 10.0 | 24.0 | 0.00 | 0.00 | 0.00 | 47 | 1007.9 |
| 20260903223103 | 101 | 107 | 10.0 | 22.0 | 0.00 | 0.00 | 0.00 | 45 | 1007.8 |
| 20260903221555 | 102 | 106 | 6.0 | 16.0 | 0.00 | 0.00 | 0.00 | 44 | 1007.8 |
| 20260903220116 | 101 | 101 | 9.0 | 18.0 | 0.00 | 0.00 | 0.00 | 45 | 1007.8 |
| 20260903214549 | 101 | 107 | 10.0 | 18.0 | 0.00 | 0.00 | 0.00 | 46 | 1007.8 |
| 20260903213043 | 102 | 110 | 5.0 | 14.0 | 0.00 | 0.00 | 0.00 | 45 | 1007.8 |
| 20260903211555 | 103 | 115 | 5.0 | 17.0 | 0.00 | 0.00 | 0.00 | 45 | 1007.8 |
| 20260903210059 | 102 | 96 | 6.0 | 19.0 | 0.00 | 0.00 | 0.00 | 47 | 1008.0 |
| 20260903204545 | 102 | 153 | 9.0 | 17.0 | 0.00 | 0.00 | 0.00 | 47 | 1008.2 |
| 20260903203049 | 102 | 75 | 4.0 | 14.0 | 0.00 | 0.00 | 0.00 | 46 | 1008.3 |
| 20260903201544 | 102 | 68 | 6.0 | 17.0 | 0.00 | 0.00 | 0.00 | 45 | 1008.5 |
| 20260903200051 | 103 | 179 | 5.0 | 13.0 | 0.00 | 0.00 | 0.00 | 44 | 1008.9 |
| 20260903194553 | 101 | 136 | 3.0 | 15.0 | 0.00 | 0.00 | 0.00 | 46 | 1009.0 |
| 20260903193048 | 101 | 117 | 6.0 | 15.0 | 0.00 | 0.00 | 0.00 | 46 | 1009.2 |
| 20260903191542 | 100 | 137 | 8.0 | 17.0 | 0.00 | 0.00 | 0.00 | 47 | 1009.5 |
| 20260903190052 | 100 | 111 | 6.0 | 16.0 | 0.00 | 0.00 | 0.00 | 48 | 1009.8 |
| 20260903184548 | 98 | 171 | 8.0 | 18.0 | 0.00 | 0.00 | 0.00 | 50 | 1010.2 |
| 20260903183046 | 98 | 118 | 10.0 | 18.0 | 0.00 | 0.00 | 0.00 | 49 | 1010.5 |
| 20260903181542 | 98 | 124 | 11.0 | 16.0 | 0.00 | 0.00 | 0.00 | 51 | 1010.9 |
| 20260903180050 | 97 | 360 | 7.0 | 13.0 | 0.00 | 0.00 | 0.00 | 52 | 1011.1 |
| 20260903174546 | 96 | 140 | 6.0 | 18.0 | 0.00 | 0.00 | 0.00 | 55 | 1011.3 |
| 20260903173043 | 96 | 127 | 6.0 | 15.0 | 0.00 | 0.00 | 0.00 | 56 | 1011.6 |
| 20260903171547 | 95 | 133 | 9.0 | 17.0 | 0.00 | 0.00 | 0.00 | 58 | 1011.8 |
| 20260903170050 | 94 | 138 | 9.0 | 19.0 | 0.00 | 0.00 | 0.00 | 59 | 1012.1 |
| 20260903164549 | 93 | 140 | 9.0 | 18.0 | 0.00 | 0.00 | 0.00 | 61 | 1012.2 |
| 20260903163043 | 92 | 184 | 11.0 | 19.0 | 0.00 | 0.00 | 0.00 | 62 | 1012.5 |
| 20260903161552 | 91 | 142 | 10.0 | 17.0 | 0.00 | 0.00 | 0.00 | 63 | 1012.4 |
| 20260903160047 | 91 | 360 | 11.0 | 21.0 | 0.00 | 0.00 | 0.00 | 66 | 1012.5 |
| 20260903154552 | 89 | 146 | 12.0 | 19.0 | 0.00 | 0.00 | 0.00 | 68 | 1012.4 |
| 20260903153052 | 89 | 147 | 13.0 | 19.0 | 0.00 | 0.00 | 0.00 | 69 | 1012.4 |
| 20260903151551 | 88 | 147 | 11.0 | 20.0 | 0.00 | 0.00 | 0.00 | 72 | 1012.5 |
| 20260903150105 | 87 | 123 | 11.0 | 18.0 | 0.00 | 0.00 | 0.00 | 74 | 1012.5 |
| 20260903144556 | 86 | 163 | 9.0 | 18.0 | 0.00 | 0.00 | 0.00 | 76 | 1012.7 |
| 20260903143041 | 86 | 138 | 10.0 | 17.0 | 0.00 | 0.00 | 0.00 | 77 | 1012.7 |
| 20260903141549 | 85 | 135 | 8.0 | 16.0 | 0.00 | 0.00 | 0.00 | 80 | 1012.7 |
| 20260903140044 | 84 | 157 | 10.0 | 18.0 | 0.00 | 0.00 | 0.00 | 81 | 1012.7 |
| 20260903134603 | 83 | 153 | 10.0 | 16.0 | 0.00 | 0.00 | 0.00 | 82 | 1012.7 |
| 20260903133043 | 83 | 166 | 6.0 | 14.0 | 0.00 | 0.00 | 0.00 | 83 | 1012.7 |
| 20260903131551 | 82 | 153 | 7.0 | 16.0 | 0.00 | 0.00 | 0.00 | 84 | 1012.3 |
| 20260903130045 | 82 | 152 | 7.0 | 11.0 | 0.00 | 0.00 | 0.00 | 84 | 1012.3 |
| 20260903124553 | 82 | 134 | 6.0 | 12.0 | 0.00 | 0.00 | 0.00 | 84 | 1012.2 |